Showing default

TRANSIT 5B-2, 704

Orbit data source: Space-Track

TRANSIT 5B-2, 704 is a payload satellite owned by USN BuWeps (US) in LEO that was launched on Thu, 05 Dec 1963 UTC via a THOR ABLESTAR launch vehicle from the Air Force Western Test Range (AFWTR). Payloads include a variety of satellites, spacecraft, and rockets equipped with specific instruments for various scientific and technological missions. These include communications satellites like Starlink; space stations such as the ISS; scientific satellites like the Hubble; Earth observation satellites from companies like Planet Labs, Umbra, and HawkEye 360; GPS; miniature CubeSats for education and research; and military/defense satellites.

Loading next visibility...
TRANSIT 5B-2 details
Identifier
704, 1963-049B
Orbit
LEO
Last TLE update6 hours ago
Origin
Flag of USUSN BuWeps (US)
ManufacturerAPL
MissionDefense Navigation
Bus & MotorTRANSIT 5, Unknown motor
Mass75 kg wet, 75 kg dry
Launch date (UTC)
1963-12-05 (61 years ago)
Launch vehicle
THOR ABLESTAR
Launch site
Air Force Western Test Range (AFWTR)
Object type
Payload
Rocket body
Debris
Shape & HBROct Cyl + Cyl + 1 Rod, 30 m
Radar Cross Section0.334 m², Large (>1 m²)

Expand to show TLE details & history

TLE from 6 hours ago
0 TRANSIT 5B-2
1   704U 63049B   25014.18360361  .00000097  00000-0  14321-3 0  9993
2   704  89.9147  74.7443 0034387 354.8825  58.6855 13.47051575  1994
Epoch: 2025-01-14T04:24Z
Definitive object data (Epoch: 2025-01-14T04:24:23.351Z)
Latitude53.99948°
Longitude-105.13015°
Altitude1,078.802 km
Speed7.324 km/s
True Right ascension04h 59m 26s
True Declination53° 50' 34"
Sunlit
Object was in full shadow at TLE epoch
Visualization TLE readout
Latitude-35.7771°
Longitude74.81201°
Altitude1,115.925 km
Speed7.284 km/s
Apparent Right ascension19h 38m 35s
Apparent Declination-47° 49' 39"
Sunlit
Object is in daylight
Visualization observer readout
Local Sidereal Time11:09:35
Azimuth119.93° SE
Elevation-51.929°
Doppler factor1
Orbital elements
Apogee altitude1,105.827 km
Perigee altitude1,054.533 km
Semi-major axis7,458.317 km
Eccentricity0.0034387
Inclination89.9147°
RAAN74.7443°
Arg. of periapsis354.8825°
True anomaly59.0229°
Mean anomaly58.6855°
Eccentric anomaly58.85412°
Mean motion3.36963 °/min
BSTAR0.00014321
Orbital period106.84 mins
Loading maneuver chart data...
Loading historical data...
Loading historical data...
Loading historical data...
Loading historical data...
Loading historical data...
Loading historical data...
Loading historical data...

TRANSIT 5B-2 Visibility forecast

Observer location: undefined°, undefined

Span
Click to sort rows by Start time (UTC) header in descending order
Start Az.
Max El. time (UTC)
Max El. Az.
Max El.
End time (UTC)
End Az.
11 mins2025-01-14 15:26:28.666Z21.831° NNE2025-01-14 15:31:28.666Z79.282° E31.992°2025-01-14 15:37:28.666Z150.174° SSE
10 mins2025-01-14 17:13:28.666Z338.908° N2025-01-14 17:18:28.666Z279.844° WNW29.502°2025-01-14 17:23:28.666Z224.246° SW
10 mins2025-01-15 03:26:28.666Z138.239° SSE2025-01-15 03:31:28.666Z71.519° E31.703°2025-01-15 03:36:28.666Z16.255° NNE
10 mins2025-01-15 05:13:28.666Z221.875° SW2025-01-15 05:17:28.666Z270.092° WNW28.489°2025-01-15 05:23:28.666Z338.039° N
|